Snowfall_Accumulation
0.0 0.0 0.0 0.0 0.0 0.0 0.0 0.2 1.0 1.3 0.0 0.0 0.0 0.0 0.0 0.0 0.0 0.0 0.0 0.0 0.0 0.0 0.0 0.0 0.0 0.0 0.0 0.0 0.0 0.0 0.0 0.0 0.0 0.0 0.0 0.0 0.0 0.0
0.0 0.0 0.0 0.0 0.0 0.0 0.0 0.1 0.2 1.0 1.2 0.0 0.0 0.0 0.0 0.0 0.0 0.0 0.0 0.0 0.0 0.0 0.0 0.0 0.0 0.0 0.0 0.0 0.0 0.0 0.0 0.0 0.0 0.0 0.0 0.0 0.0 0.0
0.0 0.0 0.0 0.0 0.0 0.0 0.0 0.0 0.2 1.0 1.2 0.0 0.0 0.2 0.2 0.3 0.1 0.0 0.0 0.0 0.0 0.0 0.0 0.0 0.0 0.0 0.0 0.0 0.0 0.0 0.0 0.0 0.0 0.0 0.0 0.0 0.0 0.0
0.0 0.0 0.0 0.0 0.0 0.0 0.2 0.2 0.2 0.0 1.9 0.3 0.1 0.9 1.6 1.0 0.4 0.1 0.0 0.0 0.0 0.0 0.0 0.0 0.0 0.0 0.0 0.0 0.0 0.0 0.0 0.0 0.0 0.0 0.0 0.0 0.0 0.0
0.0 0.0 0.0 0.0 0.0 0.0 0.7 0.5 1.1 0.5 1.1 1.3 0.6 0.9 0.5 0.2 0.1 0.1 0.0 0.0 0.0 0.0 0.0 0.0 0.0 0.0 0.0 0.0 0.0 0.0 0.0 0.0 0.0 0.0 0.0 0.0 0.0 0.0
0.0 0.0 0.0 0.0 0.9 0.9 1.3 0.9 0.4 0.8 0.9 0.6 0.4 0.9 0.8 0.2 0.2 0.2 0.1 0.0 0.0 0.0 0.0 0.0 0.0 0.0 0.0 0.0 0.0 0.0 0.0 0.0 0.0 0.0 0.0 0.0 0.0 0.0
1.0 0.7 1.6 1.7 1.1 1.3 1.3 0.8 0.4 0.5 1.5 3.5 2.2 1.4 0.5 0.2 0.3 0.0 0.2 0.0 0.2 0.0 0.0 0.0 0.0 0.0 0.0 0.0 0.0 0.0 0.0 0.0 0.0 0.0 0.0 0.0 0.0 0.0
3.1 1.4 1.5 0.9 0.6 0.4 0.6 0.7 2.0 5.0 5.7 4.9 4.3 1.1 0.1 0.1 0.0 0.1 2.0 2.3 2.6 0.0 0.1 0.1 0.0 0.0 0.0 0.0 0.0 0.0 0.0 0.0 0.0 0.0 0.0 0.0 0.0 0.0
3.1 2.1 1.0 0.2 0.4 0.4 0.2 0.2 0.8 0.7 1.7 4.7 5.0 1.6 1.4 0.5 2.5 4.0 1.2 2.2 2.8 0.0 1.1 0.7 0.0 0.0 0.0 0.0 0.0 0.0 0.0 0.0 0.0 0.0 0.0 0.0 0.0 0.0
1.6 0.3 0.6 0.3 0.0 0.3 0.5 1.5 0.6 0.1 0.0 0.0 0.1 0.5 0.7 0.6 0.3 1.4 1.6 1.6 0.6 0.1 0.1 4.2 0.1 0.1 0.0 0.0 0.0 0.0 0.0 0.0 0.0 0.0 0.0 0.0 0.0 0.0
0.3 0.1 0.1 0.3 0.1 0.3 2.4 3.5 1.2 0.1 0.0 0.0 0.2 0.1 0.0 0.0 0.2 2.9 6.7 7.5 4.4 0.4 0.0 1.5 0.4 0.0 0.0 0.0 0.0 0.0 0.0 0.0 0.0 0.0 0.0 0.0 0.0 0.0
0.2 0.1 0.0 0.4 0.4 0.6 1.9 3.3 3.2 0.4 0.6 0.5 0.0 0.0 0.0 0.1 0.1 0.7 4.4 14.5 7.9 5.6 0.0 5.6 1.8 1.7 8.7 0.5 0.0 0.0 0.0 0.0 0.0 0.0 0.0 0.0 0.0 0.3
1.5 0.8 0.3 0.4 0.7 0.6 0.7 3.4 3.2 0.3 1.6 1.9 0.6 0.0 0.0 0.1 0.1 0.1 0.7 7.1 14.0 10.5 0.1 8.3 13.9 6.0 14.1 6.9 2.2 2.0 0.0 0.0 0.9 0.7 0.3 0.6 0.6 0.7
3.3 1.3 0.8 1.0 0.9 1.0 1.0 1.2 0.9 1.2 1.7 1.3 0.6 0.3 0.3 0.2 0.1 0.1 0.2 0.7 1.6 6.3 2.1 3.9 25.9 11.5 22.2 15.3 4.6 2.1 2.4 2.7 3.7 6.9 6.8 3.8 1.2 0.8
1.3 1.1 1.2 1.0 1.0 0.7 0.5 0.8 1.0 1.6 2.4 4.0 2.6 1.1 0.3 0.2 0.4 0.5 0.1 0.1 0.2 2.2 2.4 3.1 9.1 10.8 18.5 19.9 10.5 5.9 6.0 2.5 6.1 9.1 6.4 5.0 5.2 3.8
0.9 2.4 0.7 0.6 0.6 0.8 0.4 0.3 0.5 1.0 2.9 3.4 3.1 2.0 1.7 2.4 3.5 3.0 5.3 3.7 7.6 6.1 4.9 5.5 6.9 10.0 17.7 9.8 12.6 8.9 6.5 12.2 5.5 6.2 5.5 4.1 3.2 2.7
3.2 2.8 2.4 2.1 2.0 1.2 2.2 1.5 1.0 3.0 5.0 5.1 7.1 7.8 6.2 5.7 5.1 4.7 6.8 8.8 12.9 7.3 7.6 7.5 6.2 7.6 7.7 9.8 15.8 7.9 6.5 7.0 6.5 8.4 6.4 5.6 4.8 5.1
8.7 11.1 8.4 9.0 4.5 4.0 2.6 5.1 5.0 4.5 5.0 7.4 8.9 9.5 11.4 10.7 10.1 8.4 8.9 11.0 11.7 7.7 7.8 7.8 9.8 11.0 7.8 4.8 3.6 8.9 7.0 7.6 7.1 8.1 7.9 11.7 7.3 6.6
8.0 6.9 8.4 10.9 11.7 10.1 6.7 6.6 7.4 5.0 6.7 9.3 11.3 10.7 11.6 11.3 11.4 10.6 9.5 10.5 9.5 7.1 7.0 7.7 11.0 16.8 22.9 10.6 3.7 3.5 13.9 10.1 7.8 8.2 6.8 7.3 9.0 6.8
6.0 7.2 8.5 10.0 12.9 13.3 13.4 11.6 8.0 7.2 7.6 7.1 9.2 8.9 11.9 15.3 13.1 11.5 10.1 11.9 11.2 7.4 7.3 6.4 7.0 13.6 27.8 22.1 17.5 8.6 4.9 10.9 12.3 10.8 9.9 5.5 5.3 0.4
6.4 8.6 8.3 10.3 14.0 15.1 15.0 14.7 14.9 10.2 9.6 11.7 8.9 9.3 8.8 14.5 10.9 7.4 10.1 8.8 12.1 10.8 10.6 5.2 4.2 4.8 10.6 15.2 17.4 5.6 5.8 3.5 2.8 12.4 13.5 13.4 6.4 3.7
6.6 9.6 10.4 10.3 12.9 15.8 16.7 17.6 17.7 12.9 11.8 7.4 7.8 9.4 10.0 13.2 14.9 10.4 9.2 12.5 8.6 8.6 8.8 5.5 5.5 6.4 8.9 13.1 10.2 5.7 3.9 3.2 2.3 1.3 2.4 9.2 23.0 30.4
8.1 8.7 9.7 11.3 11.6 14.2 16.1 18.0 18.8 16.1 12.1 12.0 11.4 11.1 11.0 14.6 8.4 9.8 9.7 8.6 9.9 11.0 8.0 8.6 5.9 5.0 5.3 7.6 7.4 6.3 3.4 2.2 3.2 3.9 5.0 2.8 3.9 4.7